Regional Weather Roundup
Issued by NWS

Home | Current Version | Previous Version | Graphics & Text | Print | Product List | Glossary On
Versions: 1 2 3 4 5 6 7 8 9 10 11 12 13 14 15 16 17 18 19 20 21 22 23 24 25 26 27 28 29 30 31 32 33 34 35 36 37 38 39 40 41 42 43 44 45 46 47 48 49 50
000
ASUS43 KBIS 202302
RWRND

NORTH DAKOTA REGIONAL WEATHER ROUNDUP
NATIONAL WEATHER SERVICE BISMARCK ND
600 PM CDT SUN AUG 20 2017

NOTE: "FAIR" INDICATES FEW OR NO CLOUDS BELOW 12,000 FEET WITH NO
SIGNIFICANT WEATHER AND/OR OBSTRUCTIONS TO VISIBILITY.


NDZ001>003-009>011-017-210000-
NORTHWEST NORTH DAKOTA

CITY           SKY/WX    TMP DP  RH WIND       PRES   REMARKS
WILLISTON      SUNNY     78  37  22 SE10      29.97F
MINOT          SUNNY     79  35  20 NW3       29.99S
MINOT AFB        N/A     76  34  21 CALM      29.97S
$$

NDZ018>021-031>035-040>046-210000-
SOUTHWEST NORTH DAKOTA

CITY           SKY/WX    TMP DP  RH WIND       PRES   REMARKS
BISMARCK       PTSUNNY   69  52  54 S7        30.04S
DICKINSON      PTSUNNY   73  46  38 E13       30.01F
GARRISON         N/A     70  46  42 S7        30.00F
HETTINGER ARPT CLOUDY    70  47  43 E15       30.04F
$$

NDZ004>008-012>016-024-026-027-054-210000-
NORTHEAST NORTH DAKOTA

CITY           SKY/WX    TMP DP  RH WIND       PRES   REMARKS
GRAND FORKS    MOSUNNY   78  47  33 NW9G16    29.96F
GRND FRKS AFB  SUNNY     76  43  29 NW10      29.98S
DEVILS LAKE    SUNNY     73  44  35 VRB6      30.01S
$$

NDZ022-023-025-028>030-036>039-047>053-210000-
SOUTHEAST NORTH DAKOTA

CITY           SKY/WX    TMP DP  RH WIND       PRES   REMARKS
FARGO          CLOUDY    76  48  37 W6        29.99S
JAMESTOWN      SUNNY     70  52  52 NW6       30.02R
$$





USA.gov is the U.S. government's official web portal to all federal, state and local government web resources and services.